AirNav   Advertisement
 
 923 users online  

MA93 Bay Bank II Heliport
Burlington, Massachusetts, USA

GOING TO BURLINGTON?


FAA INFORMATION EFFECTIVE 14 SEPTEMBER 2017

Location

FAA Identifier: MA93
Lat/Long: 42-28-52.3410N / 071-12-34.2000W
42-28.872350N / 071-12.570000W
42.4812058 / -71.2095000
(estimated)
Elevation: 148 ft. / 45 m (estimated)
Variation: 16W (1985)
From city: 2 miles SW of BURLINGTON, MA
Time zone: UTC -4 (UTC -5 during Standard Time)
Zip code: 01803

Heliport Operations

Heliport use: Private use. Permission required prior to landing
Activation date: 03/1990
Control tower: no
ARTCC: BOSTON CENTER
FSS: BRIDGEPORT FLIGHT SERVICE STATION
Attendance: UNATNDD
Segmented circle: no

Heliport Communications

WX ASOS at BED (4 nm W): PHONE 781-274-9733
WX ASOS at BOS (11 nm SE): PHONE 617-567-5762
WX ASOS at BVY (14 nm NE): PHONE 978-921-5042
WX ASOS at LWM (15 nm N): 126.75 (978-687-8017)
WX ASOS at OWD (18 nm S): PHONE 781-762-4314

Nearby radio navigation aids

VOR radial/distance  VOR name  Freq  Var
BOSr323/12.2BOSTON VOR/DME112.7016W
LWMr213/16.4LAWRENCE VOR/DME112.5015W
MHTr178/24.3MANCHESTER VOR/DME114.4015W
GDMr110/37.7GARDNER VOR/DME110.6014W
PSMr221/39.8PEASE VOR/DME116.5016W

 
NDB name  Hdg/Dist  Freq  Var  ID
SHAKER HILL334/2.125116WSKR ... -.- .-.
BEDDS105/7.933216WBE -... .
HAGET198/9.840215WLW .-.. .--
FITCHBURG115/24.636515WFIT ..-. .. -
MARSHFIELD330/33.036816WIMR .. -- .-.
TAUNTON003/37.322716WTAN - .- -.

Heliport Services

Runway Information

Helipad H1

Dimensions: 50 x 50 ft. / 15 x 15 m
Surface: asphalt
Traffic pattern: leftleft

Heliport Ownership and Management from official FAA records

Ownership: Privately-owned
Owner: R. LEMONS,GEN MGR,EQUITY OFC
3 NEW ENGLAND EXECUTIVE PK
BURLINGTON, MA 01803
Phone 617-273-0292
Manager: MINUTE MAN AIRFIELD.

Instrument Procedures

There are no published instrument procedures at MA93.

Some nearby airports with instrument procedures:

KBED - Laurence G Hanscom Field Airport (4 nm W)
KBOS - General Edward Lawrence Logan International Airport (11 nm SE)
6B6 - Minute Man Air Field (14 nm W)
KBVY - Beverly Regional Airport (14 nm NE)
KLWM - Lawrence Municipal Airport (15 nm N)
KOWD - Norwood Memorial Airport (18 nm S)
 
Loc | Ops | Rwys | IFR | FBO | Links
Com | Nav | Svcs | Stats | Notes


 
Area around MA93 (Bay Bank II Heliport)
 
Road maps at: MapQuest Bing Google
 
Aerial photo
No photo
 
Sectional chart

 
Airport distance calculator
Flying to Bay Bank II Heliport? Find the distance to fly.

From to MA93

Sunrise and sunset
Times for 23-Sep-2017
 Local
(UTC-4)
 Zulu
(UTC)
Morning civil twilight06:0610:06
Sunrise06:3410:34
Sunset18:4022:40
Evening civil twilight19:0823:08

Current date and time
Zulu (UTC)  23-Sep-2017 21:34:11
Local (UTC-4)  23-Sep-2017 17:34:11
 
METAR
KBED 
4nm W 
232056Z 34005KT 10SM CLR 28/15 A2999 RMK AO2 SLP165 T02830150 56005
KBOS 
11nm SE 
232054Z 11006KT 10SM FEW019 FEW250 19/17 A3001 RMK AO2 SLP162 T01940167 57000
KBVY 
14nm NE 
232053Z 09005KT 10SM CLR 24/17 A3000 RMK AO2 SLP153 T02390167 57003
KLWM 
15nm N 
232054Z 09005KT 10SM CLR 28/18 A3002 RMK AO2 SLP164 T02780178 55004
KMQE 
16nm S 
232056Z AUTO 07007KT 22/16 A3001 RMK AO1 SLP170 T02220156 58004
KOWD 
18nm S 
232053Z VRB04KT 10SM CLR 26/17 A2999 RMK AO2 SLP156 T02560172 58003
TAF
KBED 
4nm W 
231739Z 2318/2418 35007KT P6SM FEW250 FM240000 VRB03KT P6SM SCT250 TEMPO 2408/2411 5SM BR FM241300 04006KT P6SM SCT250
KBOS 
11nm SE 
231739Z 2318/2424 07007KT P6SM SCT250 FM240000 06003KT P6SM SCT250 FM240700 34003KT P6SM SCT250 TEMPO 2407/2411 5SM BR SCT015 FM241600 13007KT P6SM SCT250 FM242300 16006KT P6SM SCT250
NOTAMs
Click for the latest NOTAMs
NOTAMs are issued by the DoD/FAA and will open in a separate window not controlled by AirNav.

 

 
 

Would you like to see your business listed on this page?

 If your business provides an interesting product or service to pilots, flight crews, aircraft, or users of the Bay Bank II Heliport, you should consider listing it here.  To start the listing process, click on the button below
 
Add a business
 

Other Pages about Bay Bank II Heliport

Update a link
 
Copyright © AirNav, LLC. All rights reserved. Privacy Policy  Contact